Home   Weather   Steinfurt   Past weeks

Flag for Germany Past Weather in Steinfurt, North Rhine-Westphalia, Germany — Yesterday and Last 2 Weeks

Now
34 °F

Partly sunny.


Feels Like: 29 °F
Forecast: 36 / 42 °F
Wind: 6 mph from South

Location: Rheine-Bentlage

Current Time: Dec 7, 2016 at 11:54:47 am

Latest Report: Dec 7, 2016 at 10:20 am


Visibility: N/A

Pressure: 30.42 "Hg

Humidity: 87%

Dew Point: 30 °F

Location of SteinfurtLocation

Past Weather in Steinfurt — Graph

°F

Steinfurt Temperature Yesterday

Maximum temperature yesterday: 37 °F (at 2:20 pm)
Minimum temperature yesterday: 19 °F (at 12:20 am)
Average temperature yesterday: 27 °F

High & Low Weather Summary for the Past Weeks

 TemperatureHumidityPressure
High55 °F (Nov 22, 11:20 am)100% (Nov 23, 6:20 am)30.60 "Hg (Nov 23, 6:20 am)
Low19 °F (Nov 29, 3:20 am)48% (Dec 5, 12:20 pm)29.77 "Hg (Nov 22, 10:20 am)
Average35 °F88%30.28 "Hg
* Reported Nov 22 10:20 am — Dec 7 10:20 am, Steinfurt, Weather by CustomWeather, © 2016

Note: Actual official high and low records may vary slightly from our data, if they occured in-between our weather recording intervals... More about our weather records

Advertising

Steinfurt Weather History for the Previous 24 Hours

Scroll right to see more
 ConditionsComfort  
Time TempWeatherWind HumidityBarometerVisibility
10:20 am
Wed, Dec 7
34 °FPartly sunny.6 mph87%30.42 "HgN/A
9:20 am34 °FPartly sunny.6 mph87%30.42 "Hg6 mi
8:20 am32 °FPassing clouds.5 mph87%30.42 "Hg4 mi
7:20 am32 °FPassing clouds.8 mph87%30.39 "Hg4 mi
6:20 am30 °FPassing clouds.8 mph93%30.42 "Hg4 mi
5:20 am30 °FChilly.8 mph86%30.42 "HgN/A
4:20 am30 °FChilly.7 mph86%30.45 "HgN/A
3:20 am30 °FChilly.6 mph86%30.45 "HgN/A
2:20 am30 °FChilly.6 mph86%30.45 "HgN/A
1:20 am30 °FChilly.6 mph86%30.45 "HgN/A
12:20 am30 °FChilly.5 mph86%30.48 "HgN/A
11:20 pm
Tue, Dec 6
30 °FChilly.5 mph86%30.45 "HgN/A
10:20 pm30 °FChilly.6 mph86%30.48 "HgN/A
9:20 pm30 °FChilly.6 mph86%30.48 "HgN/A
8:20 pm30 °FChilly.6 mph86%30.48 "HgN/A
6:20 pm32 °FChilly.6 mph80%30.45 "HgN/A
5:20 pm30 °FChilly.3 mph86%30.45 "HgN/A
4:20 pm34 °FChilly.2 mph75%30.45 "HgN/A
3:20 pm37 °FScattered clouds.3 mph60%30.45 "HgN/A
2:20 pm37 °FPassing clouds.3 mph65%30.45 "HgN/A
1:20 pm36 °FPassing clouds.6 mph70%30.45 "HgN/A
12:20 pm34 °FPassing clouds.5 mph70%30.45 "HgN/A
11:20 am32 °FPassing clouds.3 mph75%30.45 "HgN/A
Weather by CustomWeather, © 2016

See weather overviewHow to use our weather pages